DW3929 Weather Reports


time (UTC)temp
C
wind
direction
speed
KPH
gust
KPH
rain 1hr
cm
rain 24hr
cm
rain mn
cm
humidity
%
barometer
mb
20260506051337 24 360 4.8 12.9 0.00 0.00 0.00 94 1007.9
20260506050813 24 360 4.8 12.9 0.00 0.00 0.00 94 1007.9
20260506050312 24 360 3.2 12.9 0.00 0.00 0.00 94 1007.9
20260506044833 25 360 4.8 14.5 0.00 0.00 0.00 93 1007.8
20260506044330 25 360 4.8 17.7 0.00 0.00 0.00 93 1007.8
20260506043829 25 360 6.4 17.7 0.00 0.00 0.00 93 1007.9
20260506043348 25 360 6.4 17.7 0.00 0.00 0.00 93 1007.9
20260506042827 25 360 6.4 17.7 0.00 0.00 0.00 93 1007.8
20260506042327 25 360 9.7 17.7 0.00 0.00 0.00 93 1007.7
20260506041828 25 360 8.0 17.7 0.00 0.00 0.00 93 1007.6
20260506041347 25 360 8.0 16.1 0.00 0.00 0.00 92 1007.7
20260506040824 25 360 6.4 19.3 0.00 0.00 0.00 92 1007.6
20260506040325 25 360 9.7 19.3 0.00 0.00 0.00 92 1007.6
20260506035823 25 360 8.0 19.3 0.00 0.00 0.00 92 1007.7
20260506035324 25 360 8.0 17.7 0.00 0.00 0.00 92 1007.6
20260506034824 25 360 8.0 17.7 0.00 0.00 0.00 91 1007.5
20260506034324 25 360 6.4 20.9 0.00 0.00 0.00 91 1007.3
20260506033813 25 360 8.0 22.5 0.00 0.00 0.00 91 1007.1
20260506033351 25 360 11.3 22.5 0.00 0.00 0.00 91 1007.1
20260506032830 25 360 6.4 19.3 0.00 0.00 0.00 91 1007.0
20260506032349 25 360 8.0 19.3 0.00 0.00 0.00 90 1007.0
20260506031829 25 360 8.0 16.1 0.00 0.00 0.00 90 1006.9
20260506031325 25 360 8.0 17.7 0.00 0.00 0.00 90 1006.8
20260506030823 25 360 8.0 22.5 0.00 0.00 0.00 90 1006.7
20260506030322 25 360 11.3 22.5 0.00 0.00 0.00 89 1006.5
20260506025819 25 360 11.3 22.5 0.00 0.00 0.00 89 1006.4
20260506025319 25 360 11.3 19.3 0.00 0.00 0.00 89 1006.4
20260506024819 26 360 9.7 17.7 0.00 0.00 0.00 89 1006.3
20260506024319 26 360 8.0 20.9 0.00 0.00 0.00 88 1006.3
20260506023818 26 360 9.7 20.9 0.00 0.00 0.00 88 1006.3
20260506023319 26 360 9.7 20.9 0.00 0.00 0.00 88 1006.2
20260506022816 26 360 8.0 20.9 0.00 0.00 0.00 87 1006.2
20260506022316 26 360 12.9 19.3 0.00 0.00 0.00 87 1006.2
20260506021812 26 360 9.7 17.7 0.00 0.00 0.00 87 1006.1
20260506021313 26 360 8.0 16.1 0.00 0.00 0.00 87 1006.2
20260506020831 26 360 8.0 14.5 0.00 0.00 0.00 86 1006.2
20260506020332 26 360 4.8 12.9 0.00 0.00 0.00 86 1006.2
20260506015830 26 360 4.8 12.9 0.00 0.00 0.00 86 1006.1
20260506015331 26 360 6.4 17.7 0.00 0.00 0.00 86 1006.1
20260506014830 26 360 4.8 19.3 0.00 0.00 0.00 85 1006.0
20260506014329 27 360 11.3 19.3 0.00 0.00 0.00 85 1006.0
20260506013848 27 360 4.8 12.9 0.00 0.00 0.00 84 1005.9
20260506013347 27 360 3.2 12.9 0.00 0.00 0.00 84 1005.8
20260506012844 27 360 4.8 16.1 0.00 0.00 0.00 83 1005.7
20260506012322 27 360 11.3 19.3 0.00 0.00 0.00 83 1005.7
20260506011821 27 360 9.7 19.3 0.00 0.00 0.00 83 1005.6
20260506011319 27 360 8.0 17.7 0.00 0.00 0.00 83 1005.7
20260506010819 27 360 9.7 17.7 0.00 0.00 0.00 83 1005.6
20260506010319 27 360 8.0 14.5 0.00 0.00 0.00 83 1005.4
20260506005820 27 360 6.4 12.9 0.00 0.00 0.00 82 1005.3
20260506005318 27 360 3.2 8.0 0.00 0.00 0.00 82 1005.3
20260506004816 28 360 3.2 8.0 0.00 0.00 0.00 82 1005.3
20260506004337 28 360 4.8 9.7 0.00 0.00 0.00 81 1005.3
20260506003816 28 360 4.8 9.7 0.00 0.00 0.00 81 1005.2
20260506003315 28 360 3.2 8.0 0.00 0.00 0.00 80 1005.1
20260506002813 28 360 3.2 8.0 0.00 0.00 0.00 80 1005.1
20260506002312 28 360 4.8 9.7 0.00 0.00 0.00 80 1005.0
20260506001852 28 360 4.8 9.7 0.00 0.00 0.00 79 1005.0
20260506001331 28 360 4.8 9.7 0.00 0.00 0.00 78 1004.9
20260506000831 29 360 4.8 9.7 0.00 0.00 0.00 78 1004.9
20260506000330 29 360 4.8 14.5 0.00 0.00 0.00 77 1004.9
20260505235828 28 360 6.4 14.5 0.00 0.00 0.00 77 1004.8
20260505235328 29 360 6.4 12.9 0.00 0.00 0.00 77 1004.7
20260505234828 29 360 6.4 12.9 0.00 0.00 0.00 77 1004.7
20260505234326 29 360 6.4 16.1 0.00 0.00 0.00 76 1004.8
20260505233824 29 360 9.7 17.7 0.00 0.00 0.00 76 1004.7
20260505233346 29 360 9.7 17.7 0.00 0.00 0.00 75 1004.6
20260505232826 30 360 6.4 19.3 0.00 0.00 0.00 75 1004.7
20260505232327 30 360 9.7 19.3 0.00 0.00 0.00 75 1004.7
20260505231824 30 360 6.4 17.7 0.00 0.00 0.00 76 1004.7
20260505231325 30 360 11.3 19.3 0.00 0.00 0.00 76 1004.7
20260505230824 30 360 11.3 19.3 0.00 0.00 0.00 75 1004.7
20260505230323 30 360 9.7 16.1 0.00 0.00 0.00 75 1004.7
20260505225839 30 360 6.4 16.1 0.00 0.00 0.00 74 1004.6
20260505225317 30 360 8.0 19.3 0.00 0.00 0.00 75 1004.7
20260505224817 30 360 8.0 20.9 0.00 0.00 0.00 74 1004.7
20260505224336 30 360 14.5 20.9 0.00 0.00 0.00 73 1004.7
20260505223813 30 360 8.0 20.9 0.00 0.00 0.00 75 1004.8
20260505223353 30 360 11.3 20.9 0.00 0.00 0.00 74 1004.8
20260505222812 30 360 9.7 17.7 0.00 0.00 0.00 74 1004.8
20260505222313 30 360 9.7 17.7 0.00 0.00 0.00 74 1004.9
20260505221814 30 360 8.0 17.7 0.00 0.00 0.00 75 1004.8
20260505221333 30 360 9.7 17.7 0.00 0.00 0.00 75 1004.9
20260505220852 30 360 8.0 24.1 0.00 0.00 0.00 74 1005.0
20260505220350 30 360 8.0 24.1 0.00 0.00 0.00 72 1005.0
20260505215814 30 360 9.7 20.9 0.00 0.00 0.00 74 1005.1
20260505215331 30 360 11.3 20.9 0.00 0.00 0.00 75 1005.1
20260505214831 30 360 12.9 25.7 0.00 0.00 0.00 75 1005.2
20260505214331 30 360 12.9 27.4 0.00 0.00 0.00 74 1005.2
20260505213829 30 360 8.0 27.4 0.00 0.00 0.00 76 1005.4
20260505213328 30 360 8.0 24.1 0.00 0.00 0.00 76 1005.3
20260505212829 30 360 12.9 24.1 0.00 0.00 0.00 74 1005.5
20260505212327 30 360 8.0 20.9 0.00 0.00 0.00 74 1005.5
20260505211825 30 360 6.4 24.1 0.00 0.00 0.00 74 1005.4
20260505211323 30 360 11.3 20.9 0.00 0.00 0.00 74 1005.5
20260505210821 29 360 12.9 24.1 0.00 0.00 0.00 75 1005.5
20260505210320 29 360 12.9 24.1 0.00 0.00 0.00 76 1005.6
20260505205839 29 360 6.4 22.5 0.00 0.00 0.00 75 1005.8
20260505205317 30 360 12.9 22.5 0.00 0.00 0.00 75 1005.9
20260505204817 30 360 11.3 19.3 0.00 0.00 0.00 74 1006.0
20260505204336 30 360 8.0 25.7 0.00 0.00 0.00 75 1006.1
20260505203814 30 360 14.5 25.7 0.00 0.00 0.00 73 1006.1
20260505203316 30 360 12.9 27.4 0.00 0.00 0.00 75 1006.1
20260505202835 30 360 12.9 27.4 0.00 0.00 0.00 75 1006.3
20260505202332 30 360 8.0 19.3 0.00 0.00 0.00 76 1006.3
20260505201831 29 360 11.3 19.3 0.00 0.00 0.00 76 1006.3
20260505201326 29 360 8.0 24.1 0.00 0.00 0.00 76 1006.4
20260505200823 29 360 11.3 22.5 0.00 0.00 0.00 75 1006.5
20260505200320 29 360 11.3 19.3 0.00 0.00 0.00 76 1006.5
20260505195814 29 360 11.3 24.1 0.00 0.00 0.00 75 1006.5
20260505195327 29 360 12.9 29.0 0.00 0.00 0.00 75 1006.6
20260505194826 29 360 16.1 29.0 0.00 0.00 0.00 75 1006.7
20260505194320 29 360 9.7 20.9 0.00 0.00 0.00 76 1006.8
20260505193821 29 360 12.9 27.4 0.00 0.00 0.00 77 1006.8
20260505193318 28 360 14.5 27.4 0.00 0.00 0.00 76 1006.9
20260505192819 29 360 17.7 27.4 0.00 0.00 0.00 75 1007.0
20260505192319 29 360 8.0 20.9 0.00 0.00 0.00 78 1007.1
20260505191817 28 360 11.3 17.7 0.00 0.00 0.00 80 1007.3
20260505191329 28 360 4.8 19.3 0.00 0.00 0.00 80 1007.4
20260505190826 28 360 11.3 19.3 0.00 0.00 0.00 79 1007.4
20260505190325 28 360 9.7 22.5 0.00 0.00 0.00 79 1007.3
20260505185844 28 360 6.4 22.5 0.00 0.00 0.00 78 1007.4
20260505185323 28 360 14.5 22.5 0.00 0.00 0.00 78 1007.5
20260505184842 28 360 9.7 24.1 0.00 0.00 0.00 79 1007.5
20260505184340 28 360 6.4 22.5 0.00 0.00 0.00 80 1007.6
20260505183819 28 360 9.7 22.5 0.00 0.00 0.00 81 1007.6
20260505183317 27 360 11.3 22.5 0.00 0.00 0.00 81 1007.7
20260505182815 27 360 8.0 22.5 0.00 0.00 0.00 83 1007.6
20260505182327 27 360 6.4 17.7 0.00 0.00 0.00 85 1007.7
20260505181827 27 360 6.4 17.7 0.00 0.00 0.00 84 1007.7
20260505181339 27 360 8.0 14.5 0.00 0.00 0.00 82 1007.9
20260505180819 27 360 4.8 14.5 0.00 0.00 0.00 82 1007.9
20260505180337 27 360 6.4 20.9 0.00 0.00 0.00 84 1007.9
20260505175815 26 360 11.3 20.9 0.00 0.00 0.00 84 1007.9
20260505175315 26 360 6.4 19.3 0.00 0.00 0.00 84 1008.0
20260505174815 26 360 4.8 12.9 0.00 0.00 0.00 86 1008.2
20260505174327 26 360 4.8 19.3 0.00 0.00 0.00 86 1008.2
20260505173828 26 360 4.8 19.3 0.00 0.00 0.00 86 1008.2
20260505173343 26 360 6.4 17.7 0.00 0.00 0.00 86 1008.2
20260505172841 26 360 11.3 16.1 0.00 0.00 0.00 86 1008.1
20260505172319 25 360 8.0 16.1 0.00 0.00 0.00 87 1008.2
20260505171818 25 360 6.4 17.7 0.00 0.00 0.00 87 1008.3
20260505171317 25 360 9.7 17.7 0.00 0.00 0.00 87 1008.4
20260505170816 25 360 8.0 16.1 0.00 0.00 0.00 87 1008.5
20260505170335 25 360 3.2 12.9 0.00 0.00 0.00 89 1008.5
20260505165813 25 360 8.0 14.5 0.00 0.00 0.00 89 1008.4
20260505165313 25 360 8.0 19.3 0.00 0.00 0.00 89 1008.4
20260505164833 25 360 4.8 19.3 0.00 0.00 0.00 89 1008.4
20260505164330 25 360 6.4 19.3 0.00 0.00 0.00 89 1008.4
20260505163828 25 360 6.4 19.3 0.00 0.00 0.00 89 1008.4
20260505163349 25 360 4.8 14.5 0.00 0.00 0.00 90 1008.4
20260505162826 24 360 4.8 12.9 0.00 0.00 0.00 90 1008.4
20260505162326 24 360 6.4 9.7 0.00 0.00 0.00 90 1008.4
20260505161845 24 360 3.2 9.7 0.00 0.00 0.00 90 1008.5
20260505161322 24 360 3.2 12.9 0.00 0.00 0.00 91 1008.4
20260505160820 24 360 6.4 14.5 0.00 0.00 0.00 91 1008.4
20260505160316 24 360 8.0 17.7 0.00 0.00 0.00 91 1008.4
20260505153328 23 360 9.7 20.9 0.00 0.00 0.00 92 1008.4
20260505152845 23 360 4.8 17.7 0.00 0.00 0.00 93 1008.4
20260505152323 23 360 8.0 25.7 0.00 0.00 0.00 93 1008.3
20260505151821 23 360 4.8 17.7 0.00 0.00 0.00 94 1008.3
20260505151320 23 360 4.8 20.9 0.00 0.00 0.00 95 1008.3
20260505150819 23 360 8.0 20.9 0.00 0.00 0.00 95 1008.2
20260505150319 23 360 9.7 19.3 0.00 0.00 0.00 95 1008.2
20260505140329 22 360 6.4 17.7 0.00 0.00 0.00 95 1008.0
20260505124815 22 360 6.4 17.7 0.00 0.00 0.00 94 1007.4
20260505124336 22 360 6.4 19.3 0.00 0.00 0.00 94 1007.4
20260505123813 22 360 11.3 19.3 0.00 0.00 0.00 94 1007.3
20260505123346 22 360 6.4 19.3 0.00 0.00 0.00 94 1007.3
20260505122825 22 360 9.7 20.9 0.00 0.00 0.00 94 1007.3
20260505122324 22 360 9.7 20.9 0.00 0.00 0.00 94 1007.2
20260505121823 22 360 8.0 19.3 0.00 0.00 0.00 94 1007.2
20260505121323 22 360 6.4 22.5 0.00 0.00 0.00 94 1007.1
20260505120822 22 360 9.7 22.5 0.00 0.00 0.00 94 1006.9
20260505120322 22 360 9.7 22.5 0.00 0.00 0.00 94 1006.9
20260505115821 22 360 8.0 17.7 0.00 0.00 0.00 94 1007.0
20260505115320 22 360 8.0 17.7 0.00 0.00 0.00 94 1007.0
20260505114820 22 360 8.0 14.5 0.00 0.00 0.00 94 1007.0
20260505114339 22 360 6.4 17.7 0.00 0.00 0.00 94 1007.0
20260505113817 22 360 6.4 17.7 0.00 0.00 0.00 94 1007.0
20260505113316 22 360 8.0 17.7 0.00 0.00 0.00 94 1006.8
20260505112835 22 360 9.7 17.7 0.00 0.00 0.00 94 1006.8
20260505112331 22 360 8.0 17.7 0.00 0.00 0.00 94 1006.8
20260505111831 22 360 8.0 17.7 0.00 0.00 0.00 94 1006.9
20260505111314 21 360 8.0 20.9 0.00 0.00 0.00 94 1006.9
20260505110830 21 360 9.7 20.9 0.00 0.00 0.00 94 1006.9
20260505110331 21 360 8.0 16.1 0.00 0.00 0.00 94 1007.0
20260505101814 21 360 9.7 17.7 0.00 0.00 0.00 94 1007.1
20260505101312 21 360 4.8 17.7 0.00 0.00 0.00 94 1007.0
20260505100812 21 360 11.3 19.3 0.00 0.00 0.00 94 1007.0
20260505100312 21 360 11.3 19.3 0.00 0.00 0.00 94 1007.1
20260505095833 21 360 8.0 19.3 0.00 0.00 0.00 94 1007.1
20260505095328 21 360 6.4 19.3 0.00 0.00 0.00 94 1007.2
20260505094827 21 360 11.3 25.7 0.00 0.00 0.00 94 1007.1
20260505094345 21 360 11.3 25.7 0.00 0.00 0.00 94 1007.2
20260505093820 21 360 8.0 20.9 0.00 0.00 0.00 94 1007.0
20260505093320 21 360 9.7 19.3 0.00 0.00 0.00 94 1007.1
20260505092818 21 360 8.0 20.9 0.00 0.00 0.00 94 1007.3
20260505092339 21 360 6.4 24.1 0.00 0.00 0.00 94 1007.4
20260505091817 21 360 9.7 24.1 0.00 0.00 0.00 94 1007.3
20260505091338 21 360 8.0 17.7 0.00 0.00 0.00 94 1007.3
20260505090818 21 360 9.7 17.7 0.00 0.00 0.00 94 1007.5
20260505090312 21 360 8.0 19.3 0.00 0.00 0.00 94 1007.5
20260505085812 21 360 9.7 22.5 0.00 0.00 0.00 94 1007.2
20260505085331 21 360 14.5 22.5 0.00 0.00 0.00 94 1007.3
20260505084828 21 360 9.7 20.9 0.00 0.00 0.00 93 1007.3
20260505084348 21 360 6.4 20.9 0.00 0.00 0.00 93 1007.5
20260505083845 21 360 8.0 20.9 0.00 0.00 0.00 93 1007.6
20260505083322 21 360 11.3 17.7 0.00 0.00 0.00 93 1007.6
20260505082819 21 360 8.0 20.9 0.00 0.00 0.00 93 1007.7
20260505082317 21 360 9.7 20.9 0.00 0.00 0.00 93 1007.7
20260505081852 21 360 6.4 32.2 0.00 0.00 0.00 93 1007.8
20260505081326 21 360 8.0 32.2 0.00 0.00 0.00 92 1007.9
20260505080825 21 360 11.3 20.9 0.00 0.00 0.00 92 1007.8
20260505080344 21 360 9.7 29.0 0.00 0.00 0.00 92 1007.9
20260505075820 21 360 16.1 29.0 0.00 0.00 0.00 93 1008.0
20260505075339 21 360 11.3 25.7 0.00 0.00 0.00 92 1008.1
20260505074818 21 360 11.3 22.5 0.00 0.00 0.00 93 1008.1
20260505074318 21 360 12.9 24.1 0.00 0.00 0.00 93 1008.2
20260505073816 21 360 12.9 24.1 0.00 0.00 0.00 93 1008.2
20260505073335 21 360 11.3 24.1 0.00 0.00 0.00 93 1008.3
20260505072854 21 360 11.3 25.7 0.00 0.00 0.00 93 1008.2
20260505072329 21 360 11.3 19.3 0.00 0.00 0.00 93 1008.3
20260505071828 21 360 9.7 20.9 0.00 0.00 0.00 92 1008.3
20260505071326 21 360 11.3 20.9 0.00 0.00 0.00 92 1008.3
20260505070825 21 360 9.7 27.4 0.00 0.00 0.00 92 1008.3
20260505070322 21 360 14.5 25.7 0.00 0.00 0.00 92 1008.6
20260505065821 21 360 11.3 22.5 0.00 0.00 0.00 92 1008.5
20260505065321 21 360 8.0 22.5 0.00 0.00 0.00 92 1008.6
20260505064820 21 360 9.7 29.0 0.00 0.00 0.00 92 1008.7
20260505064320 21 360 11.3 24.1 0.00 0.00 0.00 92 1008.9
20260505063839 21 360 11.3 27.4 0.00 0.00 0.00 92 1008.9
20260505063337 21 360 14.5 27.4 0.00 0.00 0.00 92 1008.9
20260505062815 21 360 12.9 25.7 0.00 0.00 0.00 92 1009.0
20260505062313 21 360 11.3 25.7 0.00 0.00 0.00 91 1009.0
20260505061832 21 360 12.9 27.4 0.00 0.00 0.00 91 1008.9
20260505061331 21 360 16.1 27.4 0.00 0.00 0.00 91 1008.9
20260505060830 21 360 11.3 25.7 0.00 0.00 0.00 91 1008.9
20260505060328 21 360 16.1 22.5 0.00 0.00 0.00 91 1009.1